SCP
0 0 0 0 0 0 0 0 0 0 0 0 0 0 0 0 0 0 0 0 0 0 0 0 0 0 0 0 0 0 0 0 0 0 0 0 0 0
0 0 0 0 0 0 0 0 0 0 0 0 0 0 0 0 0 0 0 0 0 0 0 0 0 0 0 0 0 0 0 0 0 0 0 0 0 0
1 0 0 0 0 0 0 0 0 0 0 0 0 0 0 0 0 0 0 0 0 0 0 0 0 0 0 0 0 0 0 0 0 0 0 0 0 0
1 1 1 1 1 1 1 0 0 0 0 0 0 0 0 0 0 0 0 0 0 0 0 0 0 0 0 0 0 0 0 0 0 0 0 0 0 0
1 1 1 1 1 1 1 1 0 0 0 0 0 0 0 0 0 0 0 0 0 0 0 0 0 0 0 0 0 0 0 0 0 0 0 0 0 0
1 1 1 1 1 1 1 1 1 1 1 0 0 0 0 0 0 0 0 0 0 0 0 0 0 0 0 0 0 0 0 0 0 0 0 0 0 0
1 1 1 1 1 1 1 1 1 1 1 1 1 1 1 1 0 0 0 0 0 0 0 0 0 0 0 0 0 0 0 0 0 0 0 0 0 0
1 1 1 1 1 1 0 1 1 1 1 1 1 1 1 1 1 1 0 0 0 0 0 0 0 0 0 0 0 0 0 0 0 0 0 0 0 0
1 1 1 1 1 1 1 0 0 1 1 1 1 1 1 1 1 1 1 1 1 0 0 0 0 0 0 0 0 0 0 0 0 0 0 0 0 0
1 1 1 1 1 1 1 1 1 1 1 1 1 1 1 1 1 1 1 1 1 0 0 0 0 0 0 0 0 0 0 0 0 0 0 0 0 0
1 1 1 1 1 1 1 1 1 1 1 1 1 1 1 1 1 1 1 1 1 0 0 0 0 0 0 0 0 0 0 0 0 0 0 0 0 0
1 1 1 1 1 1 1 1 1 1 1 1 1 1 1 1 1 1 1 1 1 0 0 0 0 0 0 0 0 0 0 0 0 0 0 0 0 0
1 1 1 0 0 0 0 1 1 1 1 1 1 1 1 1 1 1 1 1 1 1 0 0 0 0 0 0 0 0 0 0 0 0 0 0 0 0
1 1 1 0 0 0 0 0 0 0 1 1 1 1 1 1 1 1 1 1 1 1 1 1 0 0 0 0 0 0 0 0 0 0 0 0 0 0
1 1 0 0 0 0 0 0 0 0 1 1 1 1 1 1 1 1 1 1 1 1 1 1 1 1 0 0 0 0 0 0 0 0 0 0 0 0
1 0 0 0 0 0 0 0 0 0 0 1 1 1 1 1 1 1 1 1 0 0 0 0 0 0 0 0 0 0 0 0 0 0 0 0 0 0
1 1 0 0 0 0 0 0 0 0 0 1 1 1 1 1 1 1 1 1 0 0 0 0 0 0 0 0 0 0 0 0 0 0 0 0 0 0
0 1 1 0 0 0 0 0 0 0 1 1 1 1 1 1 1 1 1 0 0 0 0 0 0 0 0 0 0 0 0 0 0 0 0 0 0 0
0 0 0 0 0 0 0 0 0 0 0 0 1 1 1 1 1 1 0 0 0 0 0 0 0 0 0 0 0 0 0 0 0 0 0 0 0 0
0 0 0 0 0 0 0 0 0 0 0 0 0 0 0 0 0 0 0 0 0 0 0 0 0 0 0 0 0 0 0 0 0 0 0 0 0 0
0 0 0 0 0 0 0 0 0 0 0 0 0 0 0 0 0 0 0 0 0 0 0 0 0 0 0 0 0 0 0 0 0 0 0 0 0 0
0 0 0 0 0 0 0 0 0 0 0 0 0 0 0 0 0 0 0 0 0 0 0 0 0 0 0 0 0 0 0 0 0 0 0 0 0 0
0 0 0 0 0 0 0 0 0 0 0 0 0 0 0 0 0 0 0 0 0 0 0 0 0 0 0 0 0 0 0 0 0 0 0 0 0 0
Wind_Speed
5 5 5 4 4 4 4 4 4 4 3 2 3 2 2 1 2 3 2 5 5 4 3 3 3 3 3 3 3 3 3 4 5 5 6 6 7 8
4 4 5 4 3 4 4 4 4 5 4 2 1 1 1 1 3 3 2 7 6 5 5 4 4 4 3 3 3 3 2 3 4 4 5 5 5 5
6 6 6 5 4 4 4 4 4 4 5 3 2 1 2 2 2 3 3 4 4 7 6 5 4 4 4 3 3 3 3 3 3 2 3 4 4 4
6 6 6 5 6 5 4 5 4 4 5 4 3 2 3 3 3 4 3 3 3 7 7 6 5 4 4 3 3 3 3 3 4 3 2 3 4 4
6 6 6 6 6 5 5 5 5 5 5 5 4 3 3 3 4 4 4 3 4 5 8 8 7 6 5 4 4 4 4 4 3 3 3 4 4 3
6 7 7 6 7 6 6 6 5 5 5 5 4 4 4 4 4 4 4 4 3 3 4 5 7 9 7 6 5 5 5 4 4 4 4 4 4 4
6 7 7 5 5 5 5 5 5 5 5 5 5 4 4 3 4 4 4 4 4 4 4 4 5 5 7 7 7 6 6 6 5 5 5 5 4 4
7 7 7 7 7 7 6 5 5 6 6 5 5 4 4 5 4 5 4 4 3 3 4 4 4 4 4 4 6 8 8 7 7 6 6 6 5 5
6 6 6 4 7 7 8 9 7 7 6 6 6 6 5 4 5 6 5 5 4 2 4 5 4 4 4 4 8 8 8 8 7 7 6 6 6 6
6 6 6 5 5 5 6 7 7 7 7 7 6 6 4 3 5 6 5 5 5 3 3 5 4 4 3 4 9 8 8 8 7 7 7 7 6 6
6 5 6 6 4 5 7 7 6 6 6 6 5 4 2 2 4 4 4 5 5 3 3 4 3 3 3 3 6 10 9 8 8 8 7 7 6 6
5 5 4 5 4 5 7 7 7 6 5 5 6 5 5 4 4 5 5 5 4 3 3 3 3 2 2 2 3 5 6 7 8 9 8 8 7 5
5 5 3 4 5 6 7 6 5 5 5 5 5 4 4 4 4 4 4 4 4 3 2 4 3 3 3 2 2 3 4 4 5 6 8 9 9 7
4 4 2 5 5 5 5 3 4 5 4 4 4 4 3 3 3 3 3 3 3 4 2 3 3 3 4 3 2 3 3 3 3 3 4 8 9 9
3 1 2 5 6 6 5 5 6 5 4 4 4 4 3 3 3 3 3 3 4 3 2 3 4 3 4 3 3 3 3 3 4 4 4 4 5 5
3 4 5 6 5 3 5 5 4 3 3 4 4 3 3 3 3 3 3 3 3 3 2 2 3 4 4 4 3 2 3 3 4 4 4 4 4 4
2 3 3 4 4 4 4 3 3 3 4 3 3 3 3 3 3 3 3 3 3 3 2 2 2 2 3 3 3 3 2 2 2 3 4 4 4 4
4 4 4 4 4 3 3 3 3 3 3 3 3 3 3 3 3 2 3 3 3 2 2 2 2 2 3 2 2 3 3 2 2 3 4 4 4 4
4 4 3 3 3 3 3 3 3 3 3 3 3 3 3 3 3 2 3 3 3 3 2 2 2 3 3 3 2 3 3 2 2 3 4 4 5 4
4 3 3 3 3 3 3 3 3 3 3 3 3 3 3 3 3 3 3 3 3 2 2 2 2 3 4 4 2 3 4 4 3 3 4 4 3 2
2 2 2 2 2 2 2 2 2 2 2 2 3 3 3 3 3 3 3 3 4 3 3 2 1 3 4 3 4 3 3 4 2 3 3 4 4 4
2 2 2 2 2 2 2 2 2 2 2 3 3 3 3 3 4 4 4 3 4 3 3 2 2 3 4 4 4 3 3 3 4 3 3 2 3 3
1 2 2 2 2 2 2 2 3 2 2 3 3 3 3 3 3 4 4 4 4 3 3 3 3 3 4 4 4 3 3 3 3 3 4 5 4 3
Wind_Direction
227 222 237 238 241 249 253 258 267 273 260 216 228 215 228 215 159 216 181 143 163 173 185 193 193 195 199 195 197 208 222 223 223 227 232 230 230 230
230 238 244 247 243 244 246 249 253 266 272 267 239 215 217 235 176 227 192 157 170 177 181 186 188 191 187 181 184 186 191 197 203 212 220 225 226 224
227 225 230 245 248 243 235 241 244 250 258 259 238 176 203 245 206 232 214 215 178 172 178 181 183 183 182 185 189 190 189 187 185 192 216 222 218 210
230 231 233 227 230 243 241 241 237 237 250 258 247 218 211 221 222 236 231 229 217 163 173 175 178 180 182 183 186 190 192 189 191 197 202 204 195 188
233 232 234 232 234 231 236 240 237 230 234 245 241 222 217 204 214 229 233 238 237 171 174 180 184 188 187 183 185 185 187 188 186 188 181 170 169 168
234 235 236 234 236 235 233 236 240 241 232 243 240 222 220 208 217 224 224 213 229 216 197 191 184 190 188 184 185 187 185 185 183 182 181 175 168 165
236 238 236 235 243 247 252 237 231 237 237 239 240 233 227 218 228 230 230 222 213 219 219 209 195 199 187 187 192 194 190 188 189 188 185 182 180 178
237 242 236 221 222 222 242 253 253 243 244 244 242 244 242 238 240 243 239 232 231 205 230 231 218 218 205 190 174 181 188 189 190 194 191 186 183 183
239 242 245 228 225 223 212 217 228 238 247 254 253 255 251 239 240 240 241 241 246 222 228 239 220 223 212 160 150 169 182 188 191 191 188 186 185 183
239 241 243 241 237 240 232 223 224 223 227 236 253 263 267 265 239 244 243 236 238 233 232 251 231 227 215 172 158 170 179 185 191 191 186 185 189 192
238 241 245 239 230 238 237 233 228 223 208 207 227 246 267 264 257 240 229 228 233 215 209 248 244 236 224 198 167 172 174 179 184 185 185 185 192 201
232 228 230 245 224 223 231 233 232 231 228 209 211 219 225 214 221 241 245 243 242 228 185 230 238 230 229 202 175 173 178 177 184 186 186 187 191 216
237 230 215 193 203 215 237 239 238 246 233 225 217 212 211 214 218 228 252 261 257 250 202 214 236 223 236 219 201 197 196 187 187 189 189 190 197 219
243 241 191 155 185 203 215 231 237 244 236 226 221 214 213 215 211 217 232 254 270 270 253 223 241 237 236 228 218 200 201 202 201 199 192 182 200 216
247 213 160 177 191 194 200 219 225 229 233 228 225 225 218 213 211 201 211 220 233 250 236 226 244 242 245 242 230 212 211 207 203 206 205 197 200 207
218 169 173 195 213 203 194 201 217 231 241 240 239 237 229 213 211 209 215 210 222 215 198 220 248 251 246 245 239 219 220 209 199 206 215 215 207 209
223 205 210 204 209 206 205 205 213 209 222 238 240 230 224 219 215 215 222 230 226 219 203 196 211 239 257 256 244 234 227 231 213 208 220 217 213 210
216 215 216 219 222 220 217 210 208 214 222 229 231 230 226 223 223 223 227 229 229 235 228 210 208 225 232 217 260 256 250 240 224 217 227 229 225 212
213 217 219 224 228 228 231 232 226 214 219 226 227 225 223 225 222 221 226 235 236 235 237 229 228 238 245 242 203 237 270 260 247 231 225 233 236 221
219 216 217 221 226 227 229 232 234 224 216 219 221 222 223 226 225 223 220 229 240 245 244 231 227 250 265 272 258 207 213 250 248 249 246 238 237 204
231 229 229 230 233 240 241 239 244 242 231 225 216 222 228 230 233 235 229 209 233 236 240 238 235 249 257 257 251 226 178 189 250 270 271 256 243 230
239 240 242 248 242 242 241 241 241 237 230 232 233 235 234 236 232 234 234 232 233 237 248 245 214 231 244 247 252 245 211 186 192 207 233 270 276 267
228 235 235 229 227 229 236 239 239 242 247 247 244 242 243 241 241 238 233 235 233 233 241 240 232 232 239 240 247 251 237 236 231 209 196 180 196 216